Wind_Speed
33 34 34 34 35 36 37 39 40 41 43 44 45 47 48 49 50 51 52 54 53 50 50 51 51 52 53 56 58 60 61 62 63 63 63 61 60 60 60 60 61 60 59 60 62 63 65 68 70 72 72 72 70 67 65 61 55 51 48 48 48 48 48 52 57 61 58 56 59 59 57 58 57 53 53 51 48 50 51 54 61 65 66 70 77
34 34 34 34 35 36 38 39 40 42 43 44 46 47 48 49 50 51 53 54 51 49 50 50 51 53 55 57 59 60 61 61 62 62 62 61 61 60 60 61 61 60 59 61 63 64 66 68 70 71 69 68 64 60 57 52 46 43 42 44 45 44 43 48 53 58 59 56 58 58 56 55 52 47 47 45 39 40 45 52 58 61 62 66 72
35 34 34 35 35 36 38 39 41 42 43 45 46 47 48 49 49 51 53 52 49 49 50 50 52 54 56 58 59 59 60 60 61 61 61 61 61 61 61 61 62 62 61 62 64 65 67 68 69 68 66 63 57 52 48 44 41 40 40 41 44 43 43 48 52 56 58 57 56 55 53 50 45 43 42 38 36 39 43 48 55 59 61 64 69
35 35 34 35 36 37 38 39 41 42 44 45 46 47 48 48 49 52 52 49 48 49 49 51 53 55 56 57 58 58 58 59 60 60 60 60 60 60 61 62 63 62 61 63 64 65 67 68 67 64 62 58 51 46 43 41 39 40 41 42 43 45 46 48 51 52 53 55 53 51 49 44 40 41 39 36 38 41 42 45 52 58 61 63 66
36 35 35 35 36 37 38 40 41 42 44 45 45 47 47 47 50 51 49 47 47 48 49 51 54 55 56 55 56 56 57 58 59 59 59 59 59 60 61 62 63 62 61 63 64 65 66 66 64 60 57 52 46 42 40 39 39 40 42 42 43 46 48 49 49 49 49 50 50 47 45 41 38 39 38 39 40 40 40 42 49 58 63 63 64
36 35 35 36 37 37 39 40 41 42 43 44 45 46 46 47 50 49 47 46 47 48 50 52 53 53 53 54 54 55 55 56 58 58 59 58 59 60 61 62 63 62 61 63 64 65 65 64 60 57 53 48 43 41 40 40 41 42 43 44 44 46 49 49 48 47 47 47 46 45 43 38 37 37 38 41 42 40 39 42 49 58 63 62 61
36 36 36 36 37 38 38 40 41 42 43 44 44 44 45 47 48 46 45 45 46 48 50 51 51 51 51 52 52 53 54 54 56 57 58 59 59 61 62 63 64 63 62 63 65 65 64 61 57 53 49 45 43 42 42 41 43 45 44 44 45 47 49 49 46 46 47 46 46 46 43 38 37 36 36 41 44 40 37 43 52 59 61 60 58
37 36 37 37 37 38 38 40 41 41 42 43 43 43 45 47 46 43 43 45 46 49 50 49 49 49 50 50 51 52 52 53 55 56 57 58 59 61 63 64 65 64 64 66 67 67 65 60 54 49 45 42 42 43 43 43 45 46 45 44 45 47 49 49 46 46 47 47 47 47 44 42 41 39 38 42 43 38 36 42 53 61 63 62 56
37 37 37 37 37 38 39 40 41 41 42 42 41 43 45 44 42 41 43 45 46 47 47 46 47 47 48 49 50 50 51 52 54 55 56 58 59 61 63 64 66 65 66 67 67 67 65 60 54 48 42 40 41 43 44 43 45 46 45 44 45 47 50 50 48 47 47 47 47 46 46 47 46 44 43 43 40 35 35 41 53 61 66 65 53
36 36 36 37 37 38 39 40 40 40 40 40 40 42 43 41 39 40 42 44 44 44 43 44 45 46 47 48 49 49 49 51 53 53 55 57 58 61 62 64 66 66 67 68 67 66 65 60 54 48 43 38 38 41 43 43 45 46 46 47 46 48 51 51 49 47 48 48 46 45 46 49 50 49 45 41 36 35 35 41 53 61 66 65 52
36 36 37 37 38 38 39 40 39 39 39 38 40 41 40 38 38 39 41 41 41 41 41 42 43 45 46 47 48 48 48 49 51 52 53 55 57 61 62 64 65 65 67 69 67 66 65 60 54 49 45 41 37 38 40 41 43 45 46 47 48 50 52 51 47 45 49 49 46 45 48 51 51 49 45 39 35 35 36 42 52 57 62 61 48
36 36 37 37 38 38 39 39 39 38 37 37 39 38 36 36 37 37 38 37 38 38 39 41 42 43 45 46 47 47 47 48 50 50 51 53 56 59 62 64 65 65 67 68 66 65 64 60 55 49 45 43 40 38 37 38 41 43 44 46 48 50 53 52 48 44 49 51 48 48 50 51 51 49 46 40 36 36 38 43 47 49 57 59 46
36 36 37 37 38 38 38 38 38 36 36 36 36 34 33 34 34 34 34 34 35 37 38 40 41 43 44 45 47 47 46 48 48 48 50 51 54 58 60 62 63 64 66 66 65 64 62 58 55 50 44 42 41 40 38 37 40 42 43 46 48 50 51 52 48 45 50 53 52 52 52 53 53 51 47 41 36 37 40 43 42 42 55 59 44
36 37 37 37 37 38 38 38 36 34 35 35 32 31 31 32 31 31 31 32 34 36 38 39 40 42 43 45 46 46 46 47 47 48 49 51 53 56 58 60 61 63 66 66 64 63 60 56 53 49 45 42 40 40 39 37 39 42 44 46 49 49 50 49 46 45 51 55 55 55 55 55 54 49 45 40 37 37 40 41 39 42 56 58 42
37 37 37 37 37 37 37 36 34 33 33 31 29 28 29 29 29 29 30 31 33 36 37 39 40 42 43 44 46 46 46 47 48 48 49 51 53 55 57 59 60 63 66 66 64 63 60 56 52 48 45 42 39 39 38 36 38 42 45 46 47 47 47 47 44 43 51 57 56 56 56 55 52 48 44 40 38 38 40 39 39 46 57 55 41
38 37 37 37 37 37 36 34 32 32 31 28 26 27 27 27 27 27 29 31 33 35 38 39 41 42 43 44 45 46 46 47 48 48 49 50 53 54 56 59 60 63 66 65 64 63 60 57 53 48 44 42 39 37 35 34 36 41 45 47 46 44 43 43 42 41 50 57 56 56 56 52 49 47 44 41 40 41 41 40 40 48 55 51 42
38 37 37 37 37 37 35 32 31 30 28 25 25 26 25 25 25 26 28 31 33 36 38 40 42 43 44 45 46 46 47 48 49 49 49 51 53 54 56 58 60 63 66 65 63 62 60 57 54 49 44 40 38 35 32 32 35 39 43 45 44 42 39 37 38 39 47 55 55 55 55 50 46 46 44 42 43 42 42 42 41 46 52 49 43
39 38 37 37 37 35 33 31 30 28 25 24 24 24 23 23 24 26 28 30 33 36 39 41 42 44 44 45 46 48 48 49 49 50 50 51 53 54 56 58 59 62 65 65 62 61 59 56 53 49 44 40 37 34 31 31 35 38 39 41 42 41 36 32 34 37 43 51 54 53 54 50 45 45 42 41 43 41 42 43 41 45 51 50 43
39 38 38 38 37 34 31 30 28 25 23 23 23 22 22 22 24 26 28 30 34 37 40 42 44 45 46 46 46 48 49 49 50 51 50 51 53 55 56 58 59 61 64 65 62 60 59 56 52 48 44 41 37 33 30 31 34 35 36 37 40 38 32 29 31 34 39 47 50 51 52 50 46 43 41 41 42 41 42 43 42 47 52 50 44
40 39 39 38 35 32 31 29 26 23 22 22 21 20 21 22 23 25 28 30 34 37 41 43 45 46 47 47 47 48 49 50 51 51 51 51 52 55 56 58 59 61 63 64 62 60 58 55 51 46 43 41 36 31 31 31 31 32 33 36 38 34 29 28 30 33 37 43 47 49 50 49 45 43 42 42 43 42 41 42 43 49 52 49 44
41 40 39 37 34 31 30 27 23 21 21 21 20 20 21 22 23 25 28 30 34 37 41 44 46 47 48 48 48 48 49 50 51 51 51 50 52 54 55 57 58 60 62 62 60 60 58 54 49 44 42 40 33 29 31 30 29 30 31 34 35 30 28 29 29 31 36 40 44 48 49 47 45 43 42 43 44 42 40 42 44 48 51 50 43
41 40 38 36 33 31 28 25 22 21 20 19 19 20 21 22 24 25 28 31 34 37 41 44 46 48 49 49 49 48 49 50 51 51 51 51 51 53 54 56 57 58 60 59 58 58 56 52 48 43 40 36 30 28 30 29 28 30 30 31 31 29 28 28 28 30 35 39 42 47 49 47 45 44 44 44 44 40 39 41 44 47 51 50 42
41 40 38 35 32 30 27 24 21 21 20 19 19 20 21 22 24 26 28 31 34 37 40 44 47 49 49 50 49 48 48 50 51 52 51 51 52 52 53 54 55 57 57 56 55 55 53 50 45 39 35 32 27 27 29 29 28 29 27 27 28 28 28 28 29 30 33 36 41 46 47 46 45 45 45 43 40 38 38 41 44 47 50 50 44
41 40 37 34 31 29 26 23 22 21 20 19 19 20 21 23 24 26 28 31 34 37 40 44 47 49 50 51 51 50 49 50 52 52 52 52 53 53 53 54 54 55 55 54 51 50 49 47 43 37 33 28 24 24 27 28 26 25 24 24 26 27 28 29 30 30 31 34 40 45 45 45 45 44 42 40 37 36 38 41 44 48 50 51 47
41 39 36 33 31 29 26 23 22 21 19 18 19 20 21 23 24 26 28 31 34 37 40 44 47 49 51 52 52 51 50 50 52 52 52 53 53 54 55 55 54 54 54 52 48 45 43 41 37 34 29 24 21 22 24 24 22 21 22 24 24 25 28 30 30 31 32 33 38 43 44 45 45 43 40 39 36 36 39 42 45 48 50 52 50
41 38 35 33 31 29 26 24 23 21 18 18 18 19 21 23 24 26 28 31 34 37 40 43 47 49 51 52 52 51 50 51 53 53 53 53 54 55 56 57 56 55 54 51 46 41 37 33 29 27 25 21 19 19 20 21 20 20 22 24 25 25 26 30 31 32 33 34 36 40 43 45 47 45 43 41 38 37 40 42 45 48 51 52 50
40 37 34 33 31 28 26 24 22 20 18 17 18 19 21 22 24 26 28 30 33 36 39 43 46 49 51 52 53 52 51 52 53 54 54 53 54 56 57 58 58 58 56 53 48 42 35 28 24 23 24 22 20 20 21 22 22 21 21 22 23 24 25 28 31 32 34 35 34 35 37 42 46 46 43 41 39 38 40 43 45 48 51 52 49
39 36 34 33 31 28 26 24 22 19 18 17 17 19 20 23 25 26 28 30 33 36 39 43 46 50 51 52 53 52 52 52 53 54 54 54 54 56 57 58 58 59 58 55 51 46 38 28 22 21 23 24 24 22 21 22 24 23 21 19 19 21 23 26 30 31 32 33 31 28 30 35 40 42 41 40 40 40 40 43 46 47 50 52 50
38 36 35 33 30 28 26 23 21 19 18 17 17 19 20 22 24 26 28 31 33 36 39 43 46 49 51 51 52 52 51 51 52 52 52 52 53 54 55 55 56 58 57 55 52 48 41 31 22 21 22 23 23 22 21 22 24 25 24 21 18 18 19 23 27 28 28 27 25 23 26 31 34 38 39 40 41 41 41 43 45 46 48 52 51
38 36 34 32 30 28 26 23 21 19 18 17 18 19 20 21 23 26 28 30 33 36 39 43 46 48 50 50 50 50 50 50 50 50 49 49 50 51 52 53 53 54 54 52 49 46 42 34 25 21 22 21 21 21 21 22 24 24 23 22 20 18 17 19 22 24 24 22 20 21 25 30 33 36 38 39 39 40 41 42 44 46 48 51 50
37 35 33 32 30 28 26 23 21 19 18 18 18 19 20 22 22 24 27 29 32 35 38 42 45 47 48 48 47 48 48 48 48 48 47 47 47 49 50 51 51 51 52 51 47 44 41 36 28 23 21 21 22 22 21 20 21 22 21 20 19 19 19 19 19 20 21 20 20 23 26 29 32 34 36 38 38 39 40 41 43 46 48 50 48
36 35 33 32 30 28 26 24 21 19 18 18 18 19 21 22 23 25 26 28 31 34 37 40 43 45 46 46 46 45 46 46 46 45 45 45 45 46 48 50 50 49 48 46 43 40 38 35 30 25 23 22 24 25 22 19 19 20 20 18 19 20 21 21 20 20 19 19 21 23 25 28 31 33 35 37 38 38 40 41 44 46 47 47 46
36 36 34 33 31 29 27 24 21 19 18 18 18 19 20 22 24 26 27 29 31 33 36 39 42 44 44 44 44 43 44 44 44 43 43 43 43 43 45 46 48 47 46 44 42 38 35 33 30 27 24 24 25 24 22 19 17 18 19 18 18 20 21 21 21 20 19 19 21 23 25 27 30 32 34 37 37 38 40 42 44 46 46 46 46
38 37 35 34 32 29 27 24 21 19 18 18 18 19 20 21 23 24 26 29 31 33 36 38 41 42 43 42 41 41 41 42 42 41 42 42 42 42 42 41 41 41 42 43 41 38 35 33 30 28 25 24 24 23 21 18 16 16 18 18 18 19 21 21 20 19 18 18 21 23 25 28 30 31 33 35 35 37 40 43 45 47 46 46 46
39 37 36 35 33 30 27 23 21 20 19 18 18 19 20 21 22 23 25 27 29 31 34 37 39 41 42 41 41 40 40 39 39 39 40 40 40 40 40 38 38 38 38 39 39 37 35 33 31 30 27 24 22 21 19 17 16 15 16 18 18 18 19 20 20 19 18 18 20 22 25 27 29 30 31 33 35 37 40 43 45 46 44 44 45
38 37 36 35 32 29 26 23 21 19 18 18 19 19 20 21 22 23 25 26 28 30 33 35 37 40 41 41 41 39 38 37 37 37 38 39 40 40 39 39 40 40 39 38 38 37 35 34 32 31 29 26 22 19 17 16 15 15 16 17 18 18 18 19 19 19 19 19 20 22 25 26 27 28 30 32 35 37 39 42 43 44 43 43 45
38 37 36 34 31 28 25 23 20 19 18 18 18 19 21 21 22 23 25 26 28 30 31 33 35 37 38 39 39 37 36 35 35 35 35 36 36 37 38 39 40 40 39 39 39 37 35 34 33 32 31 29 25 20 16 14 14 14 15 17 18 18 17 17 17 17 17 18 20 22 24 24 24 26 28 32 35 37 39 41 42 43 44 44 45
39 37 35 33 30 27 24 22 20 18 18 18 18 20 21 21 22 24 25 26 28 29 30 32 33 34 35 36 37 36 35 34 33 32 33 34 34 35 36 37 38 39 39 39 38 38 36 35 34 33 32 31 27 22 18 15 13 12 13 16 17 18 17 16 15 15 15 16 19 21 22 22 22 25 28 32 35 38 40 42 43 44 44 45 46
39 37 35 32 29 26 23 21 19 18 17 17 18 20 21 22 22 23 24 26 28 29 30 31 31 32 33 34 34 35 35 34 33 32 33 35 35 35 35 35 36 37 38 37 37 38 37 36 35 34 33 32 29 25 20 18 15 11 10 13 16 17 16 15 15 15 16 17 19 21 22 21 21 24 29 32 35 38 40 43 44 44 44 47 48
38 36 33 30 27 25 22 20 18 17 17 17 19 20 21 21 22 23 24 26 27 28 29 30 30 31 32 32 32 33 34 34 34 34 34 34 34 34 34 35 35 35 36 37 37 37 37 37 36 35 34 34 32 27 22 19 17 13 9 11 14 15 16 16 16 16 17 18 19 21 22 21 19 22 28 33 35 37 40 42 42 42 43 46 49
37 35 32 29 26 24 21 19 17 16 16 17 19 20 20 21 22 23 24 25 27 27 28 29 29 30 31 31 31 31 32 32 33 33 33 33 33 34 34 34 35 35 35 36 37 37 36 36 36 36 36 35 33 30 24 20 18 15 10 10 13 15 16 17 17 17 17 17 17 19 19 18 16 18 25 32 35 37 39 41 40 39 40 42 46
37 34 31 27 25 23 20 18 17 16 16 18 18 19 20 21 22 23 24 25 26 27 27 28 28 29 29 29 28 28 29 30 30 30 31 31 31 32 33 33 34 35 35 36 36 36 36 36 36 36 36 36 35 33 29 24 20 16 12 9 12 15 16 17 18 18 16 15 14 15 16 15 15 16 21 29 34 37 39 40 40 38 38 39 41
36 33 29 26 24 21 19 17 16 16 16 17 18 19 20 21 21 22 23 24 25 26 26 26 27 27 27 26 26 26 26 27 27 28 28 29 30 31 32 32 33 34 34 34 35 35 35 35 35 35 36 36 35 33 31 27 23 20 15 10 10 14 16 17 17 17 15 12 12 13 14 14 14 15 18 26 32 36 39 40 40 39 38 37 37
34 31 28 25 23 20 18 17 16 15 16 17 18 19 20 20 21 22 22 23 24 24 25 25 25 25 24 23 23 23 24 24 25 25 26 28 29 30 31 31 32 32 33 33 33 33 34 34 34 33 34 35 34 32 29 27 25 23 20 15 11 11 14 16 16 15 13 11 11 12 14 15 15 14 16 22 30 35 38 39 40 39 38 36 36
32 29 27 24 21 19 17 16 15 15 16 16 17 18 19 19 20 21 21 22 22 23 23 23 23 23 22 21 20 21 21 22 23 24 25 26 28 29 30 31 32 32 32 32 32 32 33 33 33 33 33 34 34 31 28 25 24 24 23 19 14 10 10 13 14 14 13 12 12 13 14 15 16 14 14 18 26 33 36 38 40 39 38 38 38
31 28 25 23 20 18 16 15 14 15 15 16 17 18 18 19 19 20 20 21 21 21 21 22 22 21 20 19 19 19 20 21 22 23 24 25 27 28 29 30 31 32 32 32 32 32 32 32 32 32 33 34 34 33 29 25 23 22 23 21 17 13 10 9 11 12 13 13 13 14 14 15 16 16 15 16 22 30 35 37 39 40 39 39 40
29 26 24 21 19 17 15 14 14 14 15 16 17 17 17 18 19 19 19 20 20 20 20 20 20 20 19 18 17 18 18 19 20 22 23 25 26 27 28 28 29 30 30 31 31 31 31 31 31 32 32 34 35 34 31 26 23 23 22 21 19 16 13 10 8 10 12 13 14 14 15 16 17 17 17 16 20 26 32 36 39 40 40 40 40
27 25 22 20 18 16 14 13 14 14 15 16 16 16 17 17 18 18 19 18 18 19 19 19 19 18 17 16 16 17 18 18 20 21 23 24 26 27 27 28 28 28 28 29 29 30 31 31 31 31 31 33 34 34 32 28 25 24 24 23 22 20 18 15 10 8 10 12 14 14 15 16 17 18 18 18 19 24 30 34 37 39 40 40 40
25 23 21 19 16 14 13 13 14 14 15 16 16 16 16 16 17 18 18 18 18 18 18 18 17 17 16 15 15 16 17 18 19 21 22 24 25 26 27 27 27 27 27 27 28 28 30 30 30 30 30 31 33 33 31 29 27 26 26 25 23 22 20 18 14 9 8 10 13 14 14 16 17 19 19 20 20 22 27 32 36 37 38 38 38
23 21 19 17 15 14 13 13 14 15 15 16 16 15 15 15 16 17 17 17 17 17 17 16 16 16 15 14 14 15 16 17 18 20 21 23 24 25 26 26 26 26 27 27 27 27 28 29 29 29 28 29 31 32 31 30 29 29 28 27 25 22 20 18 16 12 8 8 10 13 14 15 17 19 20 21 21 22 25 30 34 37 38 37 36
22 20 18 16 14 13 13 13 14 15 16 16 16 15 14 15 16 16 16 17 16 16 16 15 15 15 14 14 14 14 15 16 17 19 20 22 23 24 24 24 25 25 26 26 26 26 27 27 28 29 28 28 31 31 30 29 30 30 28 27 25 23 21 19 18 15 11 7 7 10 12 14 16 19 21 21 22 22 23 26 31 35 37 37 35
Wind_Direction
280 277 274 273 271 271 272 274 277 279 281 283 285 288 289 291 294 296 299 302 302 303 305 307 310 311 311 311 310 309 308 308 308 308 309 309 309 310 309 308 308 308 309 308 306 306 306 305 305 305 303 300 298 296 293 291 289 286 284 281 279 276 274 273 274 276 276 273 271 267 261 257 253 249 247 246 247 244 236 230 231 232 232 230 226
280 277 273 271 270 271 272 274 276 278 280 283 285 287 289 292 294 296 299 301 302 303 305 308 310 310 310 309 308 308 308 308 309 309 309 310 310 311 310 309 309 309 310 310 308 308 308 308 307 306 303 300 298 296 293 291 289 285 282 279 278 275 273 274 275 278 279 276 272 269 263 259 254 243 237 240 243 241 233 226 226 227 227 227 226
279 276 272 270 270 270 271 273 275 277 280 282 285 287 290 292 294 297 300 301 302 304 307 309 309 309 309 308 307 308 309 309 309 310 310 311 312 312 311 310 310 311 312 311 310 310 310 309 309 306 302 299 297 294 290 289 287 284 280 277 276 274 273 274 276 278 280 278 274 270 264 258 249 235 229 239 248 246 236 226 222 222 223 224 224
278 274 271 269 269 269 270 272 274 277 279 282 284 287 290 292 294 298 300 301 302 305 308 309 308 308 307 307 308 309 310 310 310 310 311 312 313 312 311 310 310 311 312 311 311 311 311 311 310 306 302 299 295 291 287 286 285 283 280 277 275 275 274 274 276 279 279 276 272 268 263 254 240 229 231 243 248 246 239 228 221 220 219 220 221
276 273 270 268 268 268 269 272 274 276 279 282 284 287 289 291 295 298 299 300 303 306 308 308 307 307 307 308 309 310 310 311 311 311 312 313 313 311 310 310 310 311 313 312 312 312 312 312 310 306 302 297 291 287 285 283 282 281 281 280 278 277 277 276 277 280 279 275 270 265 259 250 236 230 239 248 247 244 240 229 220 218 217 218 220
275 271 268 267 267 267 269 271 273 276 279 281 284 286 289 292 296 297 298 301 305 306 307 306 306 306 308 309 310 311 311 312 312 313 313 313 313 311 311 311 311 312 313 312 312 313 313 313 310 306 301 293 287 284 283 281 280 280 279 278 277 278 280 278 277 277 276 273 269 264 257 244 235 237 244 248 248 245 238 228 218 215 217 218 220
273 269 267 266 265 267 269 270 273 276 278 281 284 286 289 293 295 296 298 303 305 305 305 305 306 308 309 310 311 312 313 314 314 314 314 314 313 312 312 312 312 313 314 313 314 314 314 313 310 305 298 290 283 281 281 280 281 281 280 278 277 278 281 281 276 273 272 268 263 260 253 237 234 244 246 246 249 246 236 225 215 212 215 216 216
272 268 266 265 264 266 268 269 272 275 277 280 283 286 290 294 295 296 301 304 304 304 304 305 308 310 311 312 313 314 316 316 315 315 315 315 314 313 313 313 313 315 316 315 315 315 316 315 310 304 296 286 280 279 279 280 282 284 282 280 278 279 282 283 277 271 267 264 258 253 246 236 239 248 247 245 247 240 232 224 213 211 212 211 211
270 267 265 263 264 265 266 268 271 273 277 280 283 287 291 293 295 298 302 303 302 303 305 308 310 312 313 314 316 317 318 317 316 316 316 315 314 314 314 314 315 316 316 315 315 316 316 316 312 306 297 283 275 275 277 279 282 285 285 281 277 279 283 284 280 270 262 259 256 248 241 237 241 247 244 243 243 233 229 223 212 210 212 211 212
269 266 263 262 263 264 266 268 270 273 277 279 283 288 291 292 296 300 302 301 302 305 308 311 313 314 315 317 318 319 320 318 317 317 316 316 315 314 314 315 315 316 315 314 315 316 316 316 313 308 300 287 274 272 275 279 282 286 287 285 281 280 283 284 280 268 257 255 252 244 238 237 241 245 242 240 237 229 227 220 211 213 216 216 215
267 264 262 261 262 263 265 267 270 273 276 280 285 289 291 293 298 301 301 302 305 309 312 314 316 317 318 320 320 321 321 319 318 318 317 316 315 315 315 315 315 315 315 315 317 317 316 316 314 310 303 294 281 273 274 279 283 286 288 289 287 286 287 286 281 265 252 251 247 238 235 235 239 243 241 237 232 227 227 220 216 220 221 219 215
265 262 260 260 260 262 264 266 270 273 276 282 286 288 291 296 299 300 302 306 310 313 316 318 320 321 322 322 322 322 322 320 319 319 318 316 315 315 315 315 315 316 315 316 318 318 316 315 314 310 305 299 290 281 277 279 283 285 288 288 286 287 288 288 283 265 247 246 243 234 231 235 238 240 239 236 230 228 229 225 225 229 223 219 216
263 261 259 258 259 261 263 266 269 272 277 283 285 288 293 297 299 302 306 311 315 318 321 323 324 325 325 324 324 323 322 321 320 320 317 315 315 314 315 316 316 316 315 316 318 318 316 315 313 310 305 300 294 288 283 283 284 284 286 286 284 285 285 284 282 265 245 241 240 233 230 235 238 238 237 236 231 230 232 229 232 233 221 219 217
262 260 258 257 258 260 262 265 267 272 278 282 284 289 294 297 300 306 311 316 320 323 325 327 328 328 327 326 325 324 323 323 322 320 317 315 315 315 316 317 317 316 316 318 319 318 316 315 312 309 306 300 294 290 287 285 285 284 285 284 283 284 282 281 279 262 243 238 238 234 230 232 236 237 238 236 233 234 237 235 236 229 219 219 214
263 259 257 256 257 258 260 263 266 272 277 279 283 289 293 297 303 310 316 320 324 327 330 332 332 330 329 327 326 326 325 324 322 321 318 316 316 317 318 318 319 318 317 319 320 318 318 317 314 310 306 301 298 294 289 285 284 283 283 281 281 282 279 278 277 260 241 236 237 235 232 232 234 236 237 236 235 240 243 240 234 225 220 221 210
262 258 256 254 255 257 259 261 266 272 274 276 283 288 292 299 307 314 320 325 328 332 335 336 335 333 331 329 327 327 326 324 323 322 320 318 318 320 321 321 321 320 318 319 320 319 318 317 315 312 308 304 302 298 292 285 281 280 280 280 280 279 276 275 274 258 238 234 236 235 234 236 236 236 238 238 239 243 244 238 231 225 224 222 208
261 257 254 252 253 255 256 260 265 269 271 275 281 286 293 302 310 317 323 328 333 337 339 339 338 335 333 330 329 328 327 326 325 324 322 321 321 322 323 323 323 321 319 320 320 318 318 317 316 313 309 307 305 300 292 282 276 275 277 280 281 279 274 272 270 256 237 232 234 234 234 236 236 236 239 239 239 241 240 234 229 227 227 224 210
258 255 251 250 251 252 253 258 263 265 267 274 279 286 295 305 313 319 326 332 337 340 342 342 340 336 334 333 330 329 328 328 327 326 325 325 324 325 325 325 324 322 320 320 319 318 317 316 315 313 310 308 305 298 285 275 271 272 275 278 279 277 274 271 266 253 238 233 234 234 233 233 234 234 236 235 234 235 235 231 227 227 228 225 213
255 252 249 248 248 249 252 257 259 260 265 272 278 288 299 307 315 322 329 335 339 341 343 343 341 338 336 334 331 329 329 328 327 327 328 327 326 327 327 326 326 324 321 320 319 318 317 316 314 312 310 308 305 294 279 268 268 272 275 277 276 274 274 272 263 251 241 235 234 235 235 233 233 234 235 232 230 229 229 229 226 225 227 225 218
252 248 246 246 245 246 251 254 254 257 264 271 278 291 300 309 317 324 331 336 339 342 343 343 343 340 337 335 332 330 328 327 328 329 329 329 328 329 329 328 327 326 323 321 320 318 316 314 313 311 309 308 304 290 274 266 267 272 276 276 275 274 274 270 259 249 242 238 235 235 235 234 233 233 233 230 227 225 225 227 225 223 226 225 221
249 246 244 243 242 245 249 249 249 255 263 270 281 293 301 310 319 326 332 337 339 341 342 343 343 341 338 335 333 330 328 327 329 330 330 330 330 330 330 330 329 327 325 322 320 318 316 314 313 310 308 307 304 287 271 267 268 269 272 275 276 275 272 263 254 247 243 239 236 234 231 230 230 231 230 227 225 223 222 223 223 223 226 223 218
246 243 241 239 240 244 244 242 246 255 263 273 285 294 302 311 319 326 332 336 338 340 341 343 343 341 339 335 332 330 328 329 330 331 331 332 331 331 332 332 331 329 327 324 321 318 315 313 311 310 307 307 303 284 270 268 268 266 270 277 279 276 270 260 249 244 241 239 237 233 227 226 228 229 230 226 222 221 220 221 223 223 224 223 216
242 240 237 236 238 241 238 237 245 254 263 275 286 295 304 312 319 326 331 334 337 339 340 342 342 341 339 336 332 330 330 330 331 332 333 332 331 331 333 333 332 331 329 327 323 319 315 312 310 309 308 307 299 282 271 269 269 269 274 280 279 274 270 260 248 241 239 237 236 230 224 225 228 230 230 225 220 221 220 220 223 223 223 221 215
240 236 234 234 236 236 232 235 245 254 264 276 286 297 306 314 320 326 330 334 336 338 340 341 341 340 339 336 333 331 332 332 332 333 333 332 331 332 333 334 333 333 332 329 326 320 315 312 309 309 308 303 292 282 277 272 271 276 283 283 278 272 266 258 247 240 236 235 234 229 224 226 229 229 228 225 222 222 221 219 221 223 222 219 214
237 233 230 232 233 230 228 234 245 254 264 276 287 298 307 314 321 325 329 333 335 337 339 339 340 339 338 337 334 333 333 333 333 334 334 333 332 333 334 335 335 335 334 332 329 324 317 311 308 309 309 301 290 286 285 278 273 279 286 286 280 273 264 254 245 239 236 235 233 230 228 228 230 229 226 225 224 222 220 219 219 222 221 216 214
233 229 228 230 229 225 226 235 244 254 264 276 288 300 307 314 320 324 328 332 334 336 337 338 338 338 337 337 335 333 334 335 335 335 335 334 333 334 335 335 335 336 337 336 333 329 320 309 306 309 310 303 293 290 290 283 274 273 281 285 283 277 265 253 245 240 239 238 236 234 232 230 231 229 225 224 223 220 218 218 218 220 220 216 213
230 226 226 227 224 222 227 235 244 253 264 275 288 299 307 313 318 323 327 330 332 335 336 337 337 337 337 337 336 334 335 336 336 335 335 335 336 336 336 336 336 338 339 339 337 335 326 313 307 309 309 304 299 297 296 293 284 275 276 283 285 279 267 255 248 245 243 244 242 239 235 232 230 228 223 222 223 219 217 218 218 218 218 216 214
226 224 224 224 221 220 227 236 243 252 263 274 287 298 305 311 317 322 326 329 331 333 335 336 337 337 337 337 336 335 336 337 336 336 336 337 337 336 336 337 337 338 340 341 339 337 331 320 309 306 306 305 305 303 298 295 291 283 277 279 280 276 267 257 253 251 250 249 245 237 229 228 228 225 223 223 222 218 216 216 216 217 217 216 216
223 222 222 221 218 220 228 235 242 251 262 274 286 295 303 310 316 321 325 328 330 333 335 336 337 337 336 336 336 335 336 337 337 336 336 337 337 336 337 339 339 339 341 341 338 335 332 325 311 302 304 306 305 300 291 288 290 287 279 273 270 268 266 263 261 260 257 251 241 226 217 219 221 222 223 224 221 217 215 216 215 216 216 216 217
220 220 220 218 217 221 228 234 242 251 262 273 283 292 300 308 314 319 323 326 329 332 334 336 336 336 336 335 335 335 336 337 337 336 336 337 336 336 338 340 340 339 339 340 338 335 333 329 318 305 306 309 305 296 289 290 294 290 280 272 268 264 263 265 267 266 262 250 232 217 212 213 216 219 221 222 220 217 215 215 215 215 216 215 217
218 219 218 216 217 222 228 234 242 251 261 272 282 290 298 305 311 316 320 325 328 331 334 335 335 334 333 334 335 335 335 336 335 335 336 336 336 338 339 340 340 340 339 340 339 337 334 331 322 309 303 304 301 295 292 297 302 297 285 274 268 263 259 257 256 255 254 243 224 212 209 210 213 216 219 221 222 219 216 214 214 214 214 215 216
218 218 216 215 217 222 228 234 241 250 260 272 281 290 298 305 310 315 319 324 328 330 333 334 333 332 332 333 334 334 335 335 334 335 335 336 337 340 341 340 340 340 339 339 339 337 336 335 329 317 305 300 300 298 293 295 304 304 294 280 267 260 256 251 246 240 236 230 220 213 211 211 212 216 219 223 223 220 214 212 211 211 212 213 215
217 216 214 214 217 222 228 234 240 250 260 270 279 288 297 304 309 314 320 324 327 330 333 333 332 332 331 331 333 334 334 334 335 334 334 336 338 342 343 342 341 339 338 339 339 338 341 343 339 329 316 306 305 302 294 290 297 302 298 286 270 259 252 246 242 237 228 224 221 217 214 214 216 219 223 225 223 217 211 209 208 208 211 214 215
215 213 212 213 217 222 228 233 240 250 260 269 277 286 294 301 307 313 318 323 327 330 332 333 331 330 330 330 332 333 334 335 335 334 334 336 340 342 344 343 340 337 336 338 340 341 344 348 347 341 330 316 310 306 297 288 288 293 294 288 276 264 253 243 236 232 227 225 224 220 216 217 220 224 226 224 219 214 208 206 207 207 210 215 216
214 212 211 213 217 222 227 233 241 250 260 269 277 286 292 298 304 310 315 321 326 329 331 332 330 329 329 330 331 333 335 337 336 334 334 338 340 341 342 340 338 337 339 341 343 344 347 351 352 350 344 333 322 314 303 289 282 282 284 284 279 269 257 245 235 228 223 224 224 220 218 220 223 226 226 220 214 210 206 205 207 209 211 215 216
212 211 211 213 217 222 227 234 242 251 261 270 278 285 291 296 302 308 313 318 324 328 330 331 330 329 330 330 331 334 336 336 335 335 338 340 340 340 340 340 341 344 346 348 348 349 350 353 355 354 351 346 337 327 315 298 283 275 273 272 270 266 258 246 236 227 221 218 216 215 216 221 224 225 222 215 210 207 206 206 209 210 210 213 215
211 211 212 213 217 222 227 234 243 252 262 272 278 285 291 296 301 307 313 319 324 328 331 331 331 330 330 330 331 333 335 336 338 340 341 341 340 340 341 344 346 348 350 351 350 350 352 354 356 356 355 352 347 340 332 315 294 278 269 264 260 257 253 245 237 230 222 213 211 212 215 219 222 221 217 212 208 206 207 208 210 209 208 209 213
209 210 211 213 218 223 228 235 244 253 263 273 280 285 291 296 302 308 314 319 324 328 330 331 331 330 329 330 331 333 334 337 341 343 341 341 341 343 345 347 350 352 353 353 351 351 352 355 356 356 356 354 351 348 345 337 318 290 272 265 258 252 248 243 237 234 227 218 216 218 218 219 221 218 213 210 208 208 209 209 208 206 204 205 210
208 209 210 213 218 223 229 237 246 255 265 274 280 286 291 297 303 309 314 319 324 327 330 330 330 329 329 331 332 332 333 337 340 342 342 343 344 346 347 349 352 354 355 355 353 352 352 354 355 356 356 355 353 351 349 347 336 312 282 270 262 252 245 242 237 235 233 228 225 224 221 220 221 218 212 209 209 210 211 209 205 202 201 202 207
208 208 210 213 218 223 230 238 247 256 266 274 280 286 292 298 304 310 315 319 324 327 329 330 330 329 330 331 332 333 334 338 341 343 345 345 346 347 349 351 353 356 357 357 356 355 353 353 356 357 356 355 354 351 351 350 344 331 302 275 267 257 247 241 237 235 237 234 227 222 219 217 218 217 213 210 209 210 211 209 203 200 201 202 204
206 207 210 213 218 224 232 239 248 258 267 275 281 287 293 299 305 310 315 320 325 327 329 329 329 329 330 332 334 336 338 340 343 346 346 347 348 350 352 353 355 357 358 359 359 357 355 355 357 358 357 355 353 352 352 353 349 339 318 282 269 263 255 248 241 235 236 235 227 219 215 213 213 214 213 211 209 208 210 209 204 200 202 203 204
205 206 209 214 219 226 232 240 249 259 268 275 282 288 294 299 305 310 316 321 325 327 328 329 329 330 331 333 336 339 341 343 345 347 348 349 351 353 355 356 357 358 359 360 360 359 358 357 359 360 358 356 353 352 352 353 352 346 331 296 272 263 258 256 250 241 237 234 225 216 211 209 211 212 212 212 210 207 208 209 205 201 202 205 206
203 205 209 214 220 226 232 240 250 259 269 276 283 289 294 300 306 311 317 322 325 326 327 328 329 330 332 335 339 342 343 344 346 347 349 350 353 355 357 359 359 360 0 0 0 0 0 0 1 2 1 358 354 351 350 351 354 352 343 319 285 266 260 259 257 251 242 232 222 215 210 211 214 213 210 211 211 208 207 207 206 202 201 204 208
202 206 210 215 221 227 233 241 251 261 269 277 283 288 294 301 306 312 317 322 324 325 327 328 329 330 333 337 341 343 344 345 346 348 349 352 354 357 358 360 1 1 1 0 1 1 1 1 2 4 4 1 357 351 349 351 354 354 348 337 313 281 264 260 261 259 249 232 219 215 213 214 218 218 213 210 210 210 208 207 206 204 203 205 209
202 206 211 215 221 226 233 242 252 261 270 277 283 288 295 301 306 312 317 320 322 325 326 327 328 329 332 337 341 342 343 344 345 348 350 352 355 357 358 359 360 1 1 1 1 1 1 1 2 4 6 6 1 355 350 352 356 356 351 345 335 314 284 267 263 262 255 237 222 217 217 217 218 220 217 211 210 210 210 208 206 205 205 208 213
203 207 211 216 220 226 233 243 253 262 270 277 282 289 296 302 307 313 316 319 322 324 325 326 327 328 331 335 339 340 341 342 344 346 349 351 354 356 357 358 358 359 360 360 360 0 1 1 2 5 8 8 5 360 355 355 359 1 356 351 347 341 324 294 271 261 254 242 229 222 220 218 216 217 219 215 211 211 210 208 206 205 205 208 213
203 208 211 214 220 226 234 244 254 262 270 276 282 289 297 303 308 313 315 318 321 323 323 324 325 326 329 334 337 338 339 340 342 345 347 350 352 354 355 357 358 358 358 358 358 359 360 1 3 6 9 10 8 4 359 358 2 6 3 359 357 355 350 335 300 270 254 243 234 227 222 219 216 214 216 217 214 212 211 210 207 205 204 206 210
204 207 210 214 220 226 235 246 255 262 269 276 282 290 297 303 309 312 314 317 320 321 321 323 323 323 327 332 333 334 336 337 339 344 347 348 350 351 353 354 355 356 357 358 357 357 359 1 2 6 10 12 10 5 0 0 6 10 10 8 6 3 0 353 333 295 262 246 238 231 224 220 217 214 214 216 215 213 212 211 209 206 204 205 208
203 206 209 214 220 227 236 247 255 262 270 276 282 288 297 303 308 311 313 315 317 318 319 320 320 321 325 328 329 331 333 335 338 343 345 346 348 349 351 352 354 354 355 357 357 357 359 360 1 4 10 14 12 7 2 4 9 13 14 14 11 7 3 359 350 327 287 257 243 235 228 222 218 215 215 216 216 214 212 211 210 208 206 205 206
202 205 209 213 220 228 238 247 256 264 271 276 281 288 296 303 307 309 311 312 313 315 316 317 317 319 321 323 325 326 329 332 336 341 343 345 346 347 348 351 353 354 355 357 358 359 359 359 359 1 7 14 15 9 5 7 12 14 15 16 13 8 5 5 1 350 323 279 252 240 233 226 221 219 217 216 216 215 212 210 210 210 208 207 206
202 205 209 214 221 230 240 250 260 267 271 276 281 288 296 302 305 307 308 308 310 312 313 314 315 315 316 318 319 320 323 329 334 338 342 344 344 345 348 350 353 355 357 359 360 0 360 359 359 360 4 12 15 11 7 10 14 15 14 16 15 12 10 9 8 4 355 327 277 249 238 231 225 222 220 218 215 214 212 210 209 210 209 209 208
Height
2995 2995 2994 2994 2994 2993 2993 2993 2992 2992 2991 2990 2989 2988 2987 2985 2983 2981 2979 2977 2974 2971 2969 2966 2962 2958 2955 2951 2947 2944 2940 2935 2930 2926 2922 2919 2916 2912 2907 2901 2896 2892 2889 2884 2879 2874 2868 2863 2858 2853 2847 2839 2835 2831 2825 2823 2820 2817 2816 2812 2811 2811 2808 2805 2797 2791 2797 2802 2800 2801 2807 2809 2812 2817 2820 2822 2825 2829 2832 2835 2838 2841 2846 2853 2860
2990 2989 2989 2989 2988 2988 2988 2987 2987 2986 2986 2985 2984 2983 2981 2980 2978 2976 2974 2972 2969 2967 2964 2960 2957 2953 2950 2946 2942 2938 2934 2929 2924 2919 2915 2912 2908 2904 2899 2893 2888 2883 2880 2875 2870 2864 2859 2854 2848 2843 2836 2830 2826 2821 2817 2815 2813 2811 2810 2807 2805 2805 2804 2800 2795 2790 2789 2794 2793 2793 2798 2800 2803 2808 2813 2815 2819 2822 2824 2827 2830 2833 2839 2845 2852
2985 2984 2984 2983 2983 2983 2982 2982 2982 2981 2980 2980 2979 2978 2976 2975 2973 2971 2969 2966 2964 2961 2958 2955 2951 2948 2945 2941 2936 2932 2927 2923 2918 2913 2909 2904 2900 2896 2890 2885 2879 2874 2871 2866 2861 2856 2850 2845 2840 2833 2827 2821 2818 2814 2811 2809 2808 2805 2804 2803 2799 2799 2800 2796 2792 2787 2784 2784 2786 2786 2790 2793 2796 2802 2807 2810 2814 2816 2817 2820 2823 2826 2832 2838 2844
2979 2978 2978 2978 2977 2977 2977 2977 2977 2976 2975 2974 2973 2972 2971 2969 2967 2965 2963 2961 2958 2956 2952 2949 2946 2942 2939 2935 2930 2926 2921 2916 2911 2907 2902 2897 2893 2888 2883 2877 2871 2866 2862 2858 2853 2848 2843 2837 2832 2825 2819 2813 2810 2808 2806 2804 2802 2800 2799 2798 2795 2794 2794 2792 2788 2784 2779 2776 2778 2781 2783 2787 2791 2796 2801 2804 2807 2809 2811 2812 2816 2819 2825 2831 2837
2973 2973 2973 2972 2972 2972 2972 2972 2971 2970 2970 2969 2968 2967 2965 2963 2962 2959 2957 2955 2952 2950 2946 2943 2940 2936 2932 2928 2924 2920 2915 2910 2905 2900 2895 2891 2886 2881 2876 2870 2864 2859 2855 2850 2846 2841 2835 2829 2823 2817 2811 2806 2803 2801 2800 2799 2797 2795 2793 2792 2791 2788 2787 2785 2783 2780 2775 2771 2772 2775 2778 2782 2787 2791 2795 2798 2800 2803 2804 2805 2809 2813 2818 2824 2830
2968 2967 2967 2966 2966 2966 2966 2966 2965 2965 2964 2963 2962 2961 2959 2958 2956 2954 2951 2949 2946 2943 2940 2937 2934 2930 2926 2922 2918 2913 2909 2904 2898 2893 2888 2884 2880 2874 2868 2862 2857 2853 2849 2844 2839 2834 2828 2821 2815 2810 2804 2799 2797 2795 2795 2794 2792 2790 2788 2786 2785 2783 2779 2778 2777 2775 2771 2768 2768 2770 2774 2779 2782 2786 2790 2793 2794 2796 2797 2799 2803 2807 2813 2819 2825
2962 2961 2961 2961 2961 2961 2960 2960 2959 2959 2958 2957 2956 2955 2954 2952 2950 2948 2946 2943 2940 2937 2934 2931 2928 2924 2920 2915 2911 2907 2902 2897 2892 2886 2881 2877 2872 2866 2861 2855 2850 2845 2841 2836 2831 2826 2821 2815 2809 2803 2798 2793 2790 2789 2788 2788 2785 2783 2782 2780 2779 2776 2773 2771 2771 2769 2766 2764 2765 2766 2770 2775 2778 2780 2786 2789 2788 2789 2792 2793 2797 2803 2808 2814 2820
2956 2956 2955 2955 2955 2955 2955 2954 2953 2953 2952 2951 2951 2949 2948 2947 2944 2942 2940 2937 2935 2931 2928 2925 2921 2917 2913 2909 2905 2900 2896 2891 2885 2880 2875 2869 2864 2858 2853 2848 2842 2837 2832 2827 2822 2817 2812 2807 2802 2796 2792 2787 2785 2783 2782 2781 2779 2776 2775 2774 2772 2769 2766 2764 2764 2763 2761 2760 2760 2762 2766 2770 2773 2775 2780 2783 2782 2784 2787 2788 2791 2797 2802 2807 2813
2950 2950 2950 2950 2950 2949 2949 2948 2948 2948 2947 2946 2945 2944 2943 2941 2938 2937 2935 2932 2929 2926 2922 2919 2915 2911 2907 2903 2898 2894 2889 2884 2879 2873 2868 2862 2857 2851 2845 2840 2834 2829 2824 2819 2815 2809 2803 2798 2793 2789 2785 2781 2779 2777 2776 2775 2772 2769 2768 2768 2765 2762 2760 2758 2757 2756 2755 2754 2755 2759 2762 2764 2767 2769 2773 2775 2776 2778 2781 2783 2787 2792 2795 2799 2805
2944 2944 2944 2944 2944 2944 2944 2943 2943 2942 2941 2941 2940 2938 2937 2935 2933 2932 2929 2927 2924 2920 2917 2913 2909 2905 2901 2896 2892 2887 2883 2878 2872 2867 2862 2855 2850 2844 2839 2833 2828 2822 2817 2812 2807 2802 2796 2790 2785 2781 2777 2775 2773 2771 2769 2768 2766 2763 2761 2759 2758 2756 2753 2751 2750 2749 2748 2748 2750 2754 2757 2758 2761 2763 2765 2768 2771 2774 2776 2778 2783 2786 2788 2793 2799
2938 2938 2938 2938 2939 2939 2939 2938 2938 2937 2937 2936 2935 2933 2931 2930 2928 2927 2924 2922 2918 2915 2911 2907 2903 2899 2895 2890 2886 2882 2878 2872 2867 2862 2856 2850 2843 2837 2832 2827 2822 2816 2809 2804 2799 2793 2787 2783 2778 2774 2770 2768 2766 2764 2763 2761 2760 2757 2754 2752 2749 2747 2745 2743 2742 2742 2742 2742 2744 2748 2750 2751 2755 2758 2760 2763 2767 2770 2771 2774 2777 2779 2782 2787 2793
2932 2932 2932 2933 2934 2934 2934 2934 2933 2933 2932 2931 2929 2928 2926 2925 2924 2922 2919 2916 2913 2910 2906 2902 2898 2893 2889 2885 2880 2876 2872 2867 2862 2856 2851 2846 2839 2832 2826 2820 2815 2810 2803 2797 2791 2786 2780 2775 2771 2768 2764 2761 2758 2756 2756 2755 2753 2751 2748 2746 2743 2740 2738 2736 2735 2735 2736 2736 2738 2741 2743 2745 2749 2753 2755 2758 2762 2765 2767 2769 2772 2773 2776 2781 2786
2926 2926 2927 2928 2928 2929 2929 2929 2929 2928 2927 2926 2925 2923 2922 2921 2919 2917 2914 2911 2908 2904 2900 2896 2892 2888 2883 2879 2875 2871 2866 2861 2856 2851 2846 2841 2835 2828 2821 2815 2808 2803 2797 2790 2785 2779 2773 2768 2763 2760 2758 2755 2752 2750 2748 2747 2746 2744 2741 2739 2737 2734 2732 2730 2729 2728 2729 2729 2730 2733 2737 2740 2743 2747 2751 2754 2758 2761 2762 2765 2767 2768 2770 2775 2778
2921 2921 2922 2922 2923 2924 2924 2924 2923 2923 2922 2921 2920 2919 2918 2916 2914 2912 2909 2906 2902 2899 2895 2891 2887 2882 2878 2874 2869 2865 2861 2855 2851 2846 2841 2836 2830 2823 2816 2809 2803 2797 2790 2784 2778 2772 2767 2762 2757 2753 2751 2748 2746 2744 2742 2740 2738 2736 2734 2732 2730 2727 2725 2723 2722 2722 2722 2722 2723 2726 2731 2735 2738 2742 2747 2750 2754 2756 2757 2760 2762 2763 2766 2770 2773
2915 2915 2916 2917 2918 2918 2918 2919 2919 2918 2918 2916 2915 2915 2914 2912 2909 2907 2903 2900 2897 2893 2889 2885 2881 2877 2873 2869 2864 2860 2855 2850 2845 2841 2836 2830 2823 2817 2810 2803 2797 2790 2783 2776 2771 2765 2760 2755 2750 2747 2743 2741 2740 2738 2736 2734 2731 2728 2726 2724 2723 2720 2718 2716 2716 2715 2715 2716 2717 2721 2726 2731 2734 2738 2742 2746 2749 2752 2753 2755 2757 2760 2762 2765 2769
2910 2910 2911 2911 2912 2913 2913 2914 2914 2913 2913 2912 2911 2910 2909 2907 2904 2901 2898 2895 2891 2888 2884 2880 2876 2872 2868 2863 2859 2855 2850 2845 2840 2835 2829 2823 2816 2810 2803 2797 2790 2783 2776 2770 2764 2759 2753 2749 2744 2740 2737 2735 2733 2732 2730 2727 2724 2721 2718 2716 2715 2713 2711 2710 2709 2708 2709 2711 2713 2717 2722 2728 2732 2735 2738 2743 2745 2747 2748 2750 2753 2756 2758 2761 2765
2904 2905 2905 2906 2907 2907 2908 2909 2909 2909 2908 2907 2907 2906 2904 2901 2899 2896 2893 2890 2886 2882 2879 2875 2871 2867 2863 2858 2853 2849 2845 2839 2834 2829 2823 2816 2809 2803 2797 2791 2784 2777 2769 2763 2758 2752 2747 2743 2738 2734 2731 2729 2727 2726 2724 2721 2717 2714 2711 2709 2707 2706 2705 2705 2704 2703 2704 2706 2709 2713 2718 2723 2728 2731 2734 2739 2741 2741 2743 2745 2748 2751 2753 2755 2759
2899 2899 2900 2901 2902 2903 2903 2904 2904 2904 2903 2903 2902 2901 2899 2896 2894 2891 2888 2885 2881 2877 2874 2870 2866 2862 2857 2853 2848 2843 2839 2834 2828 2823 2817 2810 2803 2797 2791 2785 2779 2771 2763 2757 2752 2746 2741 2737 2733 2729 2725 2723 2721 2719 2717 2714 2711 2708 2706 2703 2700 2698 2700 2701 2700 2699 2701 2703 2706 2709 2713 2717 2722 2726 2730 2733 2736 2737 2738 2739 2743 2746 2747 2751 2756
2894 2894 2895 2896 2897 2898 2898 2899 2899 2899 2899 2899 2898 2896 2894 2892 2889 2887 2884 2880 2876 2872 2869 2865 2861 2856 2852 2847 2843 2838 2833 2829 2823 2817 2811 2805 2798 2792 2785 2779 2773 2766 2757 2749 2745 2740 2734 2731 2727 2723 2720 2717 2715 2713 2711 2709 2705 2703 2701 2698 2694 2693 2696 2697 2696 2696 2698 2700 2702 2706 2709 2713 2717 2721 2725 2728 2731 2733 2734 2736 2740 2743 2744 2748 2754
2888 2889 2889 2891 2892 2893 2894 2894 2894 2895 2895 2894 2893 2892 2890 2887 2885 2882 2879 2875 2871 2868 2864 2860 2856 2851 2846 2842 2837 2833 2828 2823 2818 2812 2806 2800 2793 2786 2780 2774 2767 2760 2751 2743 2737 2732 2728 2724 2721 2718 2714 2711 2709 2706 2705 2703 2700 2698 2696 2693 2690 2691 2694 2693 2692 2693 2695 2696 2699 2702 2705 2710 2714 2717 2721 2723 2726 2730 2732 2734 2738 2741 2742 2747 2752
2882 2883 2884 2886 2887 2888 2890 2890 2890 2891 2891 2890 2889 2887 2885 2883 2880 2877 2874 2871 2867 2863 2860 2856 2851 2846 2842 2837 2832 2828 2823 2818 2813 2807 2801 2795 2789 2782 2776 2769 2762 2754 2746 2738 2731 2725 2721 2718 2714 2712 2709 2706 2703 2701 2699 2698 2696 2693 2691 2688 2687 2689 2690 2689 2688 2690 2691 2693 2695 2698 2701 2706 2711 2713 2716 2719 2721 2726 2731 2733 2736 2739 2740 2745 2750
2876 2877 2878 2880 2882 2883 2885 2886 2886 2887 2886 2885 2884 2883 2881 2879 2876 2873 2870 2866 2863 2859 2855 2851 2847 2842 2837 2832 2828 2824 2819 2813 2808 2802 2796 2791 2785 2779 2772 2765 2758 2750 2742 2734 2727 2720 2716 2712 2709 2707 2704 2701 2698 2696 2694 2693 2691 2689 2687 2686 2685 2686 2686 2685 2686 2687 2688 2689 2691 2694 2697 2702 2707 2710 2712 2715 2718 2723 2728 2730 2733 2735 2738 2743 2748
2870 2871 2873 2875 2877 2879 2880 2881 2882 2882 2882 2881 2880 2878 2876 2874 2871 2868 2865 2862 2859 2855 2851 2847 2842 2838 2833 2829 2824 2819 2814 2808 2802 2797 2791 2785 2781 2775 2769 2762 2755 2747 2738 2731 2723 2716 2711 2708 2705 2703 2700 2697 2694 2692 2690 2689 2687 2685 2685 2684 2683 2683 2682 2682 2682 2683 2685 2686 2687 2690 2695 2699 2703 2706 2709 2712 2716 2720 2724 2726 2729 2731 2734 2740 2745
2864 2866 2868 2870 2872 2874 2875 2877 2877 2878 2877 2877 2875 2874 2872 2869 2867 2864 2861 2858 2854 2851 2846 2842 2838 2834 2830 2825 2819 2814 2809 2803 2797 2791 2786 2781 2775 2770 2765 2758 2752 2744 2736 2728 2721 2714 2707 2703 2700 2698 2696 2693 2690 2688 2686 2685 2683 2683 2682 2681 2680 2680 2679 2679 2679 2680 2682 2683 2684 2688 2693 2697 2701 2704 2708 2712 2715 2718 2720 2722 2724 2727 2731 2736 2741
2858 2860 2862 2864 2867 2868 2870 2872 2873 2873 2873 2872 2871 2869 2867 2865 2863 2860 2857 2854 2850 2846 2842 2838 2834 2829 2825 2820 2814 2809 2803 2798 2792 2787 2782 2776 2770 2765 2759 2753 2748 2741 2733 2726 2719 2711 2705 2700 2697 2694 2691 2689 2686 2685 2683 2682 2681 2680 2679 2678 2677 2677 2676 2676 2677 2678 2679 2680 2682 2685 2690 2694 2698 2702 2706 2710 2712 2714 2717 2719 2721 2724 2727 2732 2736
2852 2854 2857 2859 2862 2863 2866 2868 2868 2868 2868 2867 2866 2865 2862 2860 2858 2856 2853 2850 2846 2842 2838 2834 2829 2825 2820 2815 2810 2804 2799 2793 2787 2781 2777 2771 2765 2759 2753 2748 2742 2737 2730 2723 2716 2709 2704 2699 2694 2691 2689 2686 2683 2681 2680 2679 2678 2677 2676 2675 2674 2673 2673 2673 2674 2675 2677 2678 2679 2682 2686 2690 2694 2699 2703 2706 2709 2711 2714 2716 2718 2721 2724 2728 2733
2846 2849 2852 2855 2857 2859 2861 2863 2863 2864 2863 2863 2861 2860 2858 2856 2854 2852 2849 2846 2842 2839 2834 2830 2826 2821 2815 2810 2805 2799 2793 2788 2782 2777 2772 2766 2760 2753 2747 2741 2735 2730 2724 2718 2712 2706 2701 2696 2692 2689 2686 2684 2681 2679 2678 2677 2675 2674 2673 2671 2670 2670 2670 2670 2671 2672 2674 2676 2677 2679 2682 2686 2690 2695 2700 2703 2706 2708 2711 2713 2715 2718 2722 2726 2731
2841 2845 2847 2850 2852 2854 2857 2858 2859 2859 2859 2858 2857 2855 2854 2852 2850 2847 2845 2842 2838 2835 2830 2826 2821 2816 2810 2805 2800 2794 2789 2783 2778 2772 2766 2760 2754 2749 2743 2737 2730 2724 2718 2713 2707 2702 2698 2694 2690 2687 2684 2682 2679 2677 2676 2674 2673 2671 2669 2667 2666 2666 2666 2667 2668 2669 2670 2672 2674 2676 2679 2682 2686 2691 2696 2699 2702 2705 2708 2711 2713 2717 2722 2725 2729
2836 2840 2843 2845 2848 2850 2852 2853 2854 2854 2854 2853 2852 2851 2849 2847 2845 2843 2840 2837 2834 2830 2826 2822 2817 2811 2806 2801 2796 2791 2786 2781 2775 2769 2763 2758 2752 2746 2741 2735 2728 2721 2716 2710 2705 2699 2694 2691 2687 2685 2682 2680 2678 2676 2674 2672 2670 2668 2666 2665 2663 2663 2663 2664 2664 2665 2666 2669 2671 2673 2675 2679 2683 2687 2691 2694 2697 2701 2705 2708 2711 2716 2720 2724 2727
2832 2835 2838 2841 2844 2846 2848 2849 2850 2850 2849 2849 2848 2846 2845 2843 2841 2839 2836 2833 2830 2826 2821 2817 2811 2806 2802 2797 2792 2787 2782 2778 2773 2768 2763 2758 2752 2745 2739 2734 2728 2722 2716 2710 2705 2698 2692 2688 2685 2682 2680 2678 2676 2674 2672 2670 2668 2666 2664 2663 2662 2661 2661 2661 2662 2663 2664 2666 2668 2671 2674 2677 2681 2685 2688 2691 2695 2699 2703 2706 2710 2714 2718 2722 2726
2829 2831 2835 2838 2840 2842 2844 2845 2845 2845 2844 2844 2843 2842 2841 2839 2838 2836 2833 2830 2827 2822 2818 2813 2807 2803 2799 2794 2790 2784 2779 2775 2771 2766 2761 2756 2750 2744 2738 2732 2727 2722 2715 2709 2703 2697 2692 2687 2683 2681 2678 2676 2674 2673 2671 2669 2667 2664 2662 2661 2660 2660 2660 2660 2660 2661 2662 2664 2667 2670 2673 2677 2680 2684 2687 2690 2694 2697 2700 2704 2708 2712 2716 2720 2725
2825 2828 2831 2833 2836 2838 2839 2840 2840 2840 2840 2840 2839 2837 2836 2835 2833 2832 2829 2827 2824 2819 2815 2810 2806 2801 2796 2792 2788 2784 2778 2773 2768 2764 2759 2754 2749 2743 2737 2730 2725 2721 2715 2710 2704 2698 2692 2687 2682 2679 2677 2675 2673 2671 2669 2667 2665 2663 2661 2660 2659 2659 2659 2659 2660 2660 2660 2663 2666 2669 2672 2676 2679 2683 2686 2689 2692 2695 2698 2702 2706 2710 2714 2718 2722
2820 2823 2826 2828 2831 2833 2834 2835 2836 2836 2836 2836 2835 2834 2832 2830 2828 2826 2824 2822 2819 2815 2811 2807 2803 2799 2795 2790 2786 2782 2777 2772 2767 2762 2757 2753 2748 2743 2737 2730 2724 2718 2714 2709 2704 2699 2693 2687 2682 2679 2676 2673 2671 2669 2668 2666 2664 2662 2660 2659 2658 2658 2658 2658 2659 2660 2661 2662 2665 2667 2670 2673 2677 2680 2683 2686 2689 2692 2695 2699 2703 2708 2712 2716 2719
2814 2817 2820 2823 2826 2828 2830 2831 2832 2832 2832 2831 2831 2830 2829 2827 2825 2823 2820 2818 2815 2811 2808 2804 2800 2796 2792 2788 2784 2780 2775 2770 2765 2760 2755 2751 2746 2742 2737 2733 2728 2722 2715 2708 2702 2697 2693 2687 2683 2679 2676 2673 2670 2668 2666 2664 2663 2661 2659 2658 2657 2657 2657 2657 2657 2658 2660 2661 2663 2665 2667 2670 2673 2676 2679 2682 2685 2688 2692 2696 2701 2705 2710 2713 2716
2810 2813 2816 2818 2821 2823 2825 2826 2827 2827 2828 2827 2826 2826 2825 2824 2822 2821 2818 2815 2812 2808 2805 2801 2798 2793 2789 2785 2781 2777 2772 2768 2763 2758 2754 2749 2745 2741 2737 2734 2730 2725 2718 2710 2704 2698 2693 2688 2683 2679 2676 2672 2669 2666 2664 2663 2661 2660 2658 2658 2657 2656 2656 2656 2656 2657 2659 2660 2661 2663 2665 2667 2669 2672 2674 2677 2680 2684 2689 2693 2698 2702 2707 2710 2714
2806 2809 2812 2815 2817 2819 2820 2821 2822 2823 2823 2823 2822 2822 2821 2820 2819 2817 2815 2813 2810 2806 2803 2799 2795 2790 2786 2781 2777 2773 2769 2765 2761 2757 2752 2747 2743 2739 2735 2731 2726 2721 2715 2709 2703 2698 2693 2688 2684 2680 2676 2672 2669 2666 2663 2661 2660 2659 2658 2657 2657 2656 2656 2656 2656 2656 2657 2658 2660 2661 2663 2665 2667 2669 2671 2673 2677 2681 2686 2691 2695 2700 2704 2707 2711
2803 2806 2809 2811 2813 2815 2816 2817 2818 2818 2818 2818 2818 2818 2817 2816 2815 2813 2811 2809 2806 2803 2800 2797 2792 2788 2783 2779 2775 2770 2767 2763 2759 2754 2750 2747 2743 2738 2733 2728 2723 2718 2712 2707 2702 2698 2694 2689 2685 2680 2676 2672 2669 2665 2662 2660 2658 2657 2656 2656 2656 2655 2655 2654 2654 2655 2656 2657 2659 2661 2663 2665 2666 2668 2670 2672 2675 2679 2684 2689 2693 2697 2701 2705 2709
2799 2802 2805 2807 2810 2811 2812 2813 2814 2814 2814 2814 2814 2814 2814 2813 2811 2809 2807 2805 2802 2800 2797 2794 2791 2787 2783 2778 2773 2769 2765 2761 2757 2754 2750 2746 2742 2737 2732 2727 2722 2717 2711 2706 2702 2698 2694 2689 2685 2681 2677 2673 2669 2665 2662 2659 2657 2655 2654 2654 2653 2653 2652 2652 2652 2653 2655 2657 2659 2661 2662 2664 2666 2667 2668 2671 2674 2678 2683 2687 2691 2695 2699 2703 2707
2795 2798 2801 2803 2806 2807 2808 2809 2810 2810 2810 2810 2810 2810 2810 2809 2807 2805 2803 2801 2799 2796 2794 2791 2788 2785 2781 2777 2772 2768 2763 2759 2756 2752 2748 2744 2739 2735 2731 2727 2722 2717 2712 2707 2702 2698 2694 2689 2685 2681 2677 2673 2669 2665 2661 2658 2656 2654 2653 2652 2651 2651 2650 2650 2651 2652 2655 2657 2659 2660 2661 2663 2664 2666 2667 2669 2673 2677 2681 2685 2688 2692 2696 2701 2705
2792 2795 2798 2800 2802 2804 2805 2805 2806 2806 2806 2806 2806 2806 2806 2804 2803 2801 2799 2798 2795 2793 2790 2788 2785 2782 2778 2775 2771 2766 2761 2757 2753 2749 2746 2742 2738 2734 2730 2726 2721 2717 2712 2707 2702 2698 2694 2690 2685 2681 2677 2673 2669 2666 2662 2658 2655 2653 2651 2651 2650 2650 2650 2650 2651 2653 2655 2657 2659 2659 2660 2661 2662 2663 2665 2668 2671 2675 2679 2682 2686 2690 2695 2699 2704
2788 2791 2794 2797 2799 2800 2801 2802 2802 2802 2802 2802 2803 2802 2802 2801 2799 2798 2796 2794 2792 2789 2787 2784 2782 2779 2775 2772 2768 2764 2759 2755 2751 2747 2744 2740 2737 2733 2729 2725 2720 2716 2712 2707 2703 2698 2694 2690 2686 2682 2677 2673 2669 2665 2662 2658 2655 2653 2651 2650 2650 2650 2650 2650 2652 2653 2655 2656 2657 2657 2657 2658 2659 2660 2663 2666 2668 2672 2675 2679 2683 2687 2692 2697 2702
2784 2787 2791 2793 2795 2796 2798 2798 2798 2798 2799 2799 2799 2799 2798 2797 2796 2794 2792 2790 2788 2786 2784 2781 2778 2776 2772 2769 2765 2761 2757 2754 2750 2747 2744 2740 2737 2733 2729 2724 2720 2716 2711 2707 2703 2699 2694 2690 2686 2682 2677 2673 2669 2665 2661 2658 2655 2653 2651 2650 2649 2649 2649 2650 2651 2652 2652 2652 2652 2652 2652 2653 2655 2657 2660 2663 2666 2668 2672 2676 2680 2684 2689 2693 2698
2780 2784 2787 2790 2791 2793 2794 2794 2794 2795 2795 2795 2795 2795 2794 2793 2792 2790 2789 2787 2785 2783 2780 2778 2775 2773 2769 2766 2763 2759 2756 2753 2750 2747 2744 2740 2737 2733 2729 2725 2721 2717 2712 2708 2704 2700 2695 2691 2687 2683 2678 2674 2670 2666 2662 2658 2655 2653 2651 2649 2648 2648 2648 2648 2648 2648 2647 2646 2646 2646 2647 2649 2652 2655 2657 2660 2663 2666 2669 2673 2677 2681 2685 2689 2694
2777 2781 2784 2786 2788 2790 2790 2790 2791 2791 2792 2792 2792 2792 2791 2790 2789 2787 2785 2784 2782 2780 2778 2775 2772 2770 2767 2764 2761 2758 2755 2753 2750 2747 2744 2740 2736 2733 2729 2725 2722 2718 2714 2709 2705 2701 2697 2693 2689 2685 2680 2676 2672 2668 2664 2659 2656 2653 2651 2649 2647 2647 2646 2645 2644 2643 2642 2641 2642 2643 2645 2647 2650 2653 2655 2657 2660 2663 2666 2670 2673 2677 2682 2686 2691
2774 2778 2780 2783 2785 2786 2786 2787 2788 2788 2788 2789 2789 2788 2788 2787 2785 2784 2782 2781 2779 2777 2775 2772 2770 2767 2765 2762 2759 2757 2755 2752 2749 2746 2743 2740 2736 2733 2729 2726 2722 2719 2715 2711 2706 2702 2698 2694 2690 2686 2682 2678 2674 2670 2666 2661 2657 2654 2651 2648 2646 2645 2644 2642 2641 2640 2640 2640 2641 2643 2645 2647 2649 2651 2653 2655 2658 2661 2664 2667 2670 2675 2679 2683 2688
2772 2775 2777 2779 2781 2782 2783 2784 2784 2785 2785 2786 2785 2785 2785 2783 2782 2781 2779 2778 2776 2774 2772 2770 2768 2765 2763 2760 2758 2756 2753 2751 2748 2746 2743 2739 2736 2733 2729 2726 2722 2719 2715 2711 2707 2703 2699 2695 2691 2687 2683 2679 2675 2671 2667 2662 2658 2655 2652 2649 2646 2644 2642 2641 2640 2640 2640 2641 2642 2643 2645 2647 2648 2650 2652 2654 2656 2659 2662 2665 2668 2672 2677 2682 2687
2769 2772 2774 2776 2777 2778 2779 2780 2781 2782 2782 2782 2782 2782 2781 2780 2779 2778 2776 2775 2773 2771 2769 2767 2765 2763 2761 2759 2756 2754 2753 2750 2748 2745 2742 2739 2736 2733 2730 2727 2723 2720 2716 2712 2708 2704 2700 2696 2692 2688 2684 2679 2676 2672 2668 2664 2659 2655 2652 2649 2646 2643 2642 2641 2640 2641 2641 2642 2643 2644 2646 2647 2648 2650 2651 2653 2655 2658 2661 2665 2668 2672 2676 2680 2685
2766 2769 2771 2772 2774 2775 2776 2777 2778 2779 2779 2779 2779 2778 2777 2777 2776 2774 2773 2772 2770 2768 2767 2765 2763 2761 2759 2757 2755 2753 2751 2749 2747 2744 2741 2738 2735 2732 2729 2727 2724 2720 2717 2713 2709 2705 2701 2697 2693 2689 2685 2681 2677 2673 2670 2665 2660 2656 2653 2651 2648 2645 2644 2642 2641 2641 2641 2642 2643 2643 2645 2646 2648 2649 2651 2653 2655 2657 2661 2664 2668 2671 2675 2679 2683
2763 2766 2767 2769 2771 2772 2773 2774 2775 2775 2776 2776 2775 2775 2774 2773 2772 2771 2770 2769 2767 2766 2764 2763 2761 2759 2757 2755 2753 2752 2750 2748 2746 2743 2740 2738 2735 2732 2729 2726 2724 2720 2717 2714 2710 2706 2702 2698 2695 2691 2687 2683 2679 2675 2671 2667 2662 2658 2655 2653 2651 2649 2647 2645 2643 2642 2641 2640 2641 2642 2643 2645 2646 2648 2650 2652 2654 2657 2659 2662 2666 2670 2673 2676 2680
2760 2763 2764 2766 2767 2768 2770 2771 2772 2772 2773 2773 2772 2772 2771 2770 2769 2768 2767 2766 2765 2763 2762 2760 2759 2757 2755 2753 2752 2751 2749 2747 2745 2743 2740 2737 2734 2731 2729 2726 2724 2721 2718 2714 2711 2707 2703 2699 2696 2693 2689 2685 2681 2677 2673 2669 2664 2660 2657 2655 2653 2652 2649 2646 2643 2641 2640 2639 2639 2640 2641 2642 2644 2646 2648 2650 2653 2655 2657 2660 2663 2667 2670 2673 2677
2758 2760 2761 2763 2764 2765 2767 2768 2769 2770 2770 2770 2769 2768 2767 2766 2766 2765 2764 2763 2762 2761 2759 2758 2756 2755 2753 2752 2750 2749 2748 2746 2744 2742 2739 2737 2734 2731 2729 2726 2723 2721 2718 2715 2711 2708 2704 2700 2697 2694 2690 2686 2683 2680 2676 2671 2666 2663 2660 2657 2655 2652 2649 2646 2643 2640 2638 2637 2637 2638 2639 2640 2642 2644 2646 2648 2650 2653 2655 2658 2661 2664 2667 2670 2674